カタログに戻る

CZ-6A DEB

運用中PO
NORAD 61113·DEBRIS·🇨🇳 China

打ち上げ Aug 6, 2024 から Taiyuan Satellite Launch Center

Loading…

次のパス (今後24時間)

TLE

最新Source: Space-Track

元期: Sep 13, 2026, 09:00 UTC

1 61113U 24140PF  26256.37500051  .00000233  00000-0  23491-3 0  9995
2 61113  88.2878 219.3745 0437570 198.2808 160.2179 13.38998255100637

AllMySatでCZ-6A DEBをリアルタイム追跡

Download on the App Store